{"data":{"norad_id":63270,"epoch":"2026-05-24T21:39:03.587040Z","epoch_age_seconds":80644,"freshness":"FRESH","line1":"1 63270U 25053F   26144.90212485  .00226766  00000+0  17100-2 0  9990","line2":"2 63270  43.0013  13.0336 0002586 252.2144 107.8442 15.71018367 69659","mean_motion":15.71018367,"eccentricity":0.0002586,"inclination_deg":43.0013,"raan_deg":13.0336,"arg_perigee_deg":252.2144,"mean_anomaly_deg":107.8442,"bstar":0.00171,"rev_number":6965,"period_min":91.660290563618,"perigee_km":354.24385950796,"apogee_km":357.72674756335,"semimajor_km":6734.1223035357,"source":"CELESTRAK","updated_at":"2026-05-25T13:38:19.924798Z"}}